Crystal River, FL

12:21 AM EST on December 13, 2019 (GMT -0500)
Crystal River

Weather History for KCGC - October, 2019

Change the Weather History Date:

Wednesday, October 23, 2019

  Actual Average (KBKV) Record (KBKV)
Temperature  
Mean Temperature 68 °F -  
Max Temperature 78 °F 80 °F 88 °F (2007)
Min Temperature 59 °F 56 °F 39 °F (2016)
Cooling Degree Days 4    
Growing Degree Days 18 (Base 50)    
Moisture  
Dew Point 53 °F    
Average Humidity 55    
Maximum Humidity 83    
Minimum Humidity 34    
Precipitation  
Precipitation 0.00 in - - ()
Sea Level Pressure  
Sea Level Pressure 30.09 in    
Wind  
Wind Speed 5 mph (NE)    
Max Wind Speed 13 mph    
Max Gust Speed 21 mph    
Visibility 10 miles    
Events      
Averages and records for this station are not official NWS values.
T = Trace of Precipitation, MM = Missing Value Source: NWS Daily Summary

Daily Weather History Graph

Daily Weather History Graph

Search for Another Location

Airport or City:

Astronomy

Oct. 23, 2019 Rise Set
Actual Time 7:36 AM EDT 6:52 PM EDT
Civil Twilight 7:12 AM EDT 7:16 PM EDT
Nautical Twilight 6:44 AM EDT 7:44 PM EDT
Astronomical Twilight 6:16 AM EDT 8:11 PM EDT
Moon 2:28 AM EDT (10/23) 4:10 PM EDT (10/23)
Length of Visible Light 12h 04m
Length of Day
11h 16m
Waning Crescent, 27% of the Moon is Illuminated
Oct 23
Waning Crescent
Oct 27
New
Nov 4
First Quarter
Nov 12
Full
Nov 19
Last Quarter

Hourly Weather History & Observations

Time (EDT) Temp. Dew Point Humidity Pressure Visibility Wind Dir Wind Speed Gust Speed Precip Events Conditions
12:15 AM 71.6 °F 66.2 °F 83% 30.04 in 10.0 mi NNW 4.6 mph - N/A   Mostly Cloudy
12:55 AM 71.6 °F 64.4 °F 78% 30.04 in 10.0 mi Calm Calm - N/A   Overcast
1:15 AM 71.6 °F 62.6 °F 73% 30.04 in 10.0 mi NNW 4.6 mph - N/A   Overcast
1:35 AM 69.8 °F 62.6 °F 78% 30.04 in 10.0 mi NNW 3.5 mph - N/A   Overcast
1:55 AM 69.8 °F 62.6 °F 78% 30.05 in 10.0 mi Calm Calm - N/A   Overcast
2:15 AM 69.8 °F 60.8 °F 73% 30.06 in 10.0 mi NNW 3.5 mph - N/A   Overcast
2:35 AM 69.8 °F 59.0 °F 68% 30.05 in 10.0 mi North 4.6 mph - N/A   Overcast
2:55 AM 68.0 °F 55.4 °F 64% 30.05 in 10.0 mi North 6.9 mph - N/A   Overcast
3:35 AM 68.0 °F 50.0 °F 52% 30.04 in 10.0 mi North 5.8 mph - N/A   Scattered Clouds
3:55 AM 66.2 °F 50.0 °F 56% 30.04 in 10.0 mi Calm Calm - N/A   Clear
4:55 AM 64.4 °F 50.0 °F 59% 30.05 in 10.0 mi NNE 3.5 mph - N/A   Clear
5:15 AM 62.6 °F 50.0 °F 63% 30.06 in 10.0 mi North 3.5 mph - N/A   Clear
5:55 AM 62.6 °F 46.4 °F 55% 30.06 in 10.0 mi NNE 3.5 mph - N/A   Clear
6:15 AM 62.6 °F 48.2 °F 59% 30.07 in 10.0 mi North 3.5 mph - N/A   Clear
6:35 AM 60.8 °F 46.4 °F 59% 30.08 in 10.0 mi Calm Calm - N/A   Clear
6:55 AM 60.8 °F 48.2 °F 63% 30.08 in 10.0 mi North 3.5 mph - N/A   Clear
7:15 AM 60.8 °F 48.2 °F 63% 30.09 in 10.0 mi Calm Calm - N/A   Clear
7:35 AM 60.8 °F 48.2 °F 63% 30.09 in 10.0 mi Calm Calm - N/A   Clear
7:55 AM 59.0 °F 48.2 °F 67% 30.09 in 10.0 mi Calm Calm - N/A   Clear
8:15 AM 60.8 °F 46.4 °F 59% 30.10 in 10.0 mi North 4.6 mph - N/A   Clear
8:35 AM 60.8 °F 46.4 °F 59% 30.10 in 10.0 mi NE 6.9 mph - N/A   Clear
8:55 AM 62.6 °F 44.6 °F 52% 30.11 in 10.0 mi NNE 6.9 mph - N/A   Clear
9:15 AM 64.4 °F 44.6 °F 49% 30.11 in 10.0 mi NE 10.4 mph - N/A   Clear
9:35 AM 64.4 °F 44.6 °F 49% 30.12 in 10.0 mi NNE 5.8 mph - N/A   Clear
9:55 AM 66.2 °F 42.8 °F 43% 30.12 in 10.0 mi NE 9.2 mph 20.7 mph N/A   Clear
10:15 AM 68.0 °F 44.6 °F 43% 30.12 in 10.0 mi NE 10.4 mph 16.1 mph N/A   Clear
10:35 AM 68.0 °F 42.8 °F 40% 30.12 in 10.0 mi NNE 9.2 mph 16.1 mph N/A   Clear
10:55 AM 69.8 °F 42.8 °F 38% 30.13 in 10.0 mi NE 12.7 mph 17.3 mph N/A   Clear
11:15 AM 69.8 °F 42.8 °F 38% 30.12 in 10.0 mi NE 11.5 mph 17.3 mph N/A   Clear
11:35 AM 71.6 °F 44.6 °F 38% 30.12 in 10.0 mi NNE 11.5 mph - N/A   Clear
11:55 AM 71.6 °F 44.6 °F 38% 30.12 in 10.0 mi NNE 10.4 mph - N/A   Clear
12:15 PM 73.4 °F 44.6 °F 36% 30.12 in 10.0 mi ENE 9.2 mph 17.3 mph N/A   Clear
12:35 PM 73.4 °F 44.6 °F 36% 30.11 in 10.0 mi ENE 10.4 mph - N/A   Clear
12:55 PM 75.2 °F 44.6 °F 34% 30.11 in 10.0 mi ENE 11.5 mph - N/A   Clear
1:15 PM 75.2 °F 44.6 °F 34% 30.10 in 10.0 mi ENE 10.4 mph - N/A   Clear
1:35 PM 77.0 °F 46.4 °F 34% 30.09 in 10.0 mi NE 8.1 mph - N/A   Clear
1:55 PM 77.0 °F 46.4 °F 34% 30.08 in 10.0 mi NE 9.2 mph - N/A   Clear
2:15 PM 77.0 °F 48.2 °F 36% 30.07 in 10.0 mi NE 6.9 mph 16.1 mph N/A   Clear
2:35 PM 78.8 °F 50.0 °F 36% 30.06 in 10.0 mi ENE 6.9 mph 16.1 mph N/A   Clear
2:55 PM 78.8 °F 50.0 °F 36% 30.06 in 10.0 mi NNE 8.1 mph - N/A   Clear
3:15 PM 78.8 °F 51.8 °F 39% 30.06 in 10.0 mi East 6.9 mph - N/A   Clear
3:35 PM 78.8 °F 53.6 °F 42% 30.06 in 10.0 mi NE 9.2 mph - N/A   Clear
3:55 PM 78.8 °F 53.6 °F 42% 30.06 in 10.0 mi East 6.9 mph - N/A   Clear
4:15 PM 78.8 °F 55.4 °F 44% 30.06 in 10.0 mi NE 6.9 mph - N/A   Clear
4:35 PM 78.8 °F 55.4 °F 44% 30.06 in 10.0 mi ENE 8.1 mph - N/A   Clear
4:55 PM 78.8 °F 59.0 °F 51% 30.06 in 10.0 mi ENE 6.9 mph - N/A   Clear
5:15 PM 78.8 °F 59.0 °F 51% 30.06 in 10.0 mi ENE 6.9 mph - N/A   Clear
5:35 PM 78.8 °F 59.0 °F 51% 30.06 in 10.0 mi NE 6.9 mph - N/A   Clear
5:55 PM 78.8 °F 60.8 °F 54% 30.06 in 10.0 mi East 6.9 mph - N/A   Clear
6:15 PM 77.0 °F 60.8 °F 57% 30.06 in 10.0 mi ENE 5.8 mph - N/A   Clear
6:35 PM 77.0 °F 60.8 °F 57% 30.07 in 10.0 mi ENE 4.6 mph - N/A   Clear
7:35 PM 71.6 °F 62.6 °F 73% 30.08 in 10.0 mi NE 3.5 mph - N/A   Scattered Clouds
7:55 PM 71.6 °F 62.6 °F 73% 30.09 in 10.0 mi Calm Calm - N/A   Clear
8:15 PM 71.6 °F 60.8 °F 69% 30.10 in 10.0 mi ENE 4.6 mph - N/A   Clear
8:35 PM 71.6 °F 60.8 °F 69% 30.10 in 10.0 mi ENE 6.9 mph - N/A   Scattered Clouds
8:55 PM 69.8 °F 59.0 °F 68% 30.11 in 10.0 mi ENE 8.1 mph - N/A   Mostly Cloudy
9:15 PM 69.8 °F 59.0 °F 68% 30.11 in 10.0 mi East 6.9 mph - N/A   Scattered Clouds
9:35 PM 69.8 °F 59.0 °F 68% 30.11 in 10.0 mi ENE 9.2 mph - N/A   Clear
9:55 PM 69.8 °F 59.0 °F 68% 30.12 in 10.0 mi East 8.1 mph - N/A   Clear
10:15 PM 69.8 °F 57.2 °F 64% 30.13 in 10.0 mi ENE 8.1 mph - N/A   Clear
10:35 PM 68.0 °F 57.2 °F 68% 30.13 in 10.0 mi East 6.9 mph - N/A   Clear
10:55 PM 68.0 °F 57.2 °F 68% 30.13 in 10.0 mi ENE 9.2 mph - N/A   Clear
11:15 PM 68.0 °F 55.4 °F 64% 30.13 in 10.0 mi East 6.9 mph - N/A   Clear
11:35 PM 68.0 °F 55.4 °F 64% 30.13 in 10.0 mi ENE 5.8 mph - N/A   Clear
11:55 PM 66.2 °F 55.4 °F 68% 30.13 in 10.0 mi ENE 4.6 mph - N/A   Clear